This is the latest recevied weather packets stored in our database for station/object W8KJR. If no packets are shown the sender has not sent any weather packets the latest 10 day(s).
| Time | Temp. | Humidity | Pressure | Rain* | Wind** | Luminosity | Snow |
|---|---|---|---|---|---|---|---|
| 1777890814 | 10° C | 73% | 1006.5 hPa | 0 mm | - | - | - |
| 1777889908 | 10.56° C | 71% | 1006.4 hPa | 0 mm | - | - | - |
| 1777889006 | 10.56° C | 70% | 1006.8 hPa | 0 mm | - | - | - |
| 1777888101 | 10.56° C | 70% | 1006.5 hPa | 0 mm | - | - | - |
| 1777887197 | 10.56° C | 71% | 1006.7 hPa | 0 mm | - | - | - |
| 1777886292 | 10.56° C | 70% | 1007 hPa | 0 mm | - | - | - |
| 1777885392 | 10.56° C | 70% | 1006.8 hPa | 0 mm | - | - | - |
| 1777884488 | 10.56° C | 70% | 1007.1 hPa | 0 mm | - | - | - |
| 1777883585 | 10.56° C | 69% | 1007.3 hPa | 0 mm | - | - | - |
| 1777882686 | 10.56° C | 69% | 1007.6 hPa | 0 mm | - | - | - |
| 1777881781 | 10.56° C | 68% | 1007.4 hPa | 0 mm | - | - | - |
| 1777880879 | 11.11° C | 67% | 1007.9 hPa | 0 mm | - | - | - |
| 1777879978 | 11.11° C | 66% | 1007.9 hPa | 0 mm | - | - | - |
| 1777879076 | 11.11° C | 65% | 1008.1 hPa | 0 mm | - | - | - |
| 1777878172 | 11.11° C | 66% | 1008.2 hPa | 0 mm | - | - | - |
| 1777877267 | 11.11° C | 65% | 1008.4 hPa | 0 mm | - | - | - |
| 1777876366 | 11.11° C | 64% | 1008.6 hPa | 0 mm | - | - | - |
| 1777875466 | 11.67° C | 63% | 1008.7 hPa | 0 mm | - | - | - |
| 1777874561 | 11.67° C | 62% | 1008.7 hPa | 0 mm | - | - | - |
| 1777873658 | 11.67° C | 62% | 1009.2 hPa | 0 mm | - | - | - |
| 1777872755 | 11.67° C | 62% | 1009.2 hPa | 0 mm | - | - | - |
| 1777871853 | 11.67° C | 63% | 1009.6 hPa | 0 mm | - | - | - |
| 1777870949 | 11.11° C | 65% | 1009.8 hPa | 0 mm | - | - | - |
| 1777870045 | 10.56° C | 68% | 1009.8 hPa | 0 mm | - | - | - |
| 1777869142 | 10.56° C | 69% | 1009.8 hPa | 0 mm | - | - | - |
* Rain latest hour (hover to see other rain measurements)
** Current wind speed in m/s (hover to see current wind gust speed)